Selinsgrove, PA

6:55 PM EDT on September 25, 2017 (GMT -0400)
Penn Valley

Weather History for KSEG - June, 2013

Change the Weather History Date:

Thursday, June 27, 2013

  Actual Average (KIPT) Record (KIPT)
Temperature  
Mean Temperature 73 °F -  
Max Temperature 84 °F 80 °F 97 °F (2007)
Min Temperature 64 °F 58 °F 45 °F (1897)
Cooling Degree Days 8    
Growing Degree Days 23 (Base 50)    
Moisture  
Dew Point 68 °F    
Average Humidity 90    
Maximum Humidity 100    
Minimum Humidity 56    
Precipitation  
Precipitation 1.85 in - - ()
Sea Level Pressure  
Sea Level Pressure 29.70 in    
Wind  
Wind Speed 2 mph (NE)    
Max Wind Speed 14 mph    
Max Gust Speed 31 mph    
Visibility 4 miles    
Events Fog , Rain , Thunderstorm    
Averages and records for this station are not official NWS values.
T = Trace of Precipitation, MM = Missing Value Source: NWS Daily Summary

Daily Weather History Graph

Daily Weather History Graph

Search for Another Location

Airport or City:

Trip Planner

Search our weather history database for the weather conditions in past years. The results will help you decide how hot, cold, wet, or windy it might be!

Date:

Astronomy

Jun. 27, 2013 Rise Set
Actual Time 5:37 AM EDT 8:43 PM EDT
Civil Twilight 5:04 AM EDT 9:16 PM EDT
Nautical Twilight 4:21 AM EDT 9:59 PM EDT
Astronomical Twilight 3:31 AM EDT 10:49 PM EDT
Moon 11:36 PM EDT (6/27) 10:38 AM EDT (6/27)
Length of Visible Light 16h 11m
Length of Day
15h 05m
Waning Gibbous, 76% of the Moon is Illuminated
Jun 27
Waning Gibbous
Jun 30
Last Quarter
Jul 8
New
Jul 15
First Quarter
Jul 22
Full

Hourly Weather History & Observations

Time (EDT) Temp. Heat Index Dew Point Humidity Pressure Visibility Wind Dir Wind Speed Gust Speed Precip Events Conditions
12:03 AM 69.8 °F - 66.2 °F 88% 29.84 in 2.5 mi Calm Calm - N/A   Clear
12:13 AM 69.8 °F - 66.2 °F 88% 29.84 in 3.0 mi Calm Calm - N/A   Clear
12:20 AM 69.8 °F - 66.2 °F 88% 29.84 in 2.5 mi Calm Calm - N/A   Clear
12:53 AM 69.1 °F - 66.9 °F 93% 29.82 in 3.0 mi Calm Calm - N/A   Clear
1:04 AM 68.0 °F - 66.2 °F 94% 29.83 in 2.5 mi Calm Calm - N/A   Clear
1:53 AM 66.9 °F - 66.0 °F 97% 29.82 in 2.5 mi NNW 3.5 mph - N/A   Clear
2:53 AM 66.9 °F - 64.9 °F 93% 29.82 in 2.0 mi Calm Calm - N/A   Clear
3:04 AM 66.2 °F - 64.4 °F 94% 29.82 in 2.0 mi Calm Calm - N/A   Scattered Clouds
3:23 AM 66.2 °F - 64.4 °F 94% 29.82 in 2.0 mi Calm Calm - N/A   Mostly Cloudy
3:35 AM 66.2 °F - 64.4 °F 94% 29.82 in 0.8 mi Calm Calm - N/A   Overcast
3:53 AM 66.0 °F - 64.9 °F 96% 29.81 in 1.0 mi North 3.5 mph - N/A   Overcast
3:56 AM 66.2 °F - 64.4 °F 94% 29.82 in 2.0 mi North 3.5 mph - N/A   Overcast
4:06 AM 64.4 °F - 64.4 °F 100% 29.81 in 1.2 mi Calm Calm - N/A   Overcast
4:36 AM 64.4 °F - 64.4 °F 100% 29.82 in 0.8 mi Calm Calm - N/A   Mostly Cloudy
4:53 AM 66.0 °F - 64.9 °F 96% 29.81 in 0.2 mi Calm Calm - N/A Fog Fog
5:53 AM 66.9 °F - 66.0 °F 97% 29.81 in 0.2 mi Calm Calm - 0.01 in Fog Fog
6:53 AM 68.0 °F - 66.0 °F 93% 29.81 in 0.2 mi Calm Calm - N/A Fog Fog
7:53 AM 68.0 °F - 66.9 °F 96% 29.80 in 0.2 mi NE 5.8 mph - N/A Fog Fog
8:31 AM 68.0 °F - 66.2 °F 94% 29.81 in 1.0 mi Calm Calm - N/A   Overcast
8:53 AM 69.1 °F - 68.0 °F 96% 29.80 in 1.2 mi Calm Calm - N/A   Overcast
9:24 AM 69.8 °F - 68.0 °F 94% 29.79 in 2.0 mi Calm Calm - N/A   Overcast
9:53 AM 70.0 °F - 68.0 °F 93% 29.78 in 2.5 mi Calm Calm - N/A   Overcast
10:00 AM 71.6 °F - 69.8 °F 94% 29.79 in 3.0 mi Calm Calm - N/A   Mostly Cloudy
10:15 AM 73.4 °F - 69.8 °F 88% 29.78 in 4.0 mi Calm Calm - N/A   Scattered Clouds
10:53 AM 75.9 °F - 69.1 °F 79% 29.76 in 4.0 mi Calm Calm - N/A   Haze
11:53 AM 80.1 °F 83.2 °F 70.0 °F 71% 29.74 in 6.0 mi Calm Calm - N/A   Haze
12:53 PM 82.9 °F 87.0 °F 70.0 °F 65% 29.71 in 10.0 mi SE 4.6 mph - N/A   Mostly Cloudy
1:53 PM 82.9 °F 85.0 °F 66.0 °F 56% 29.69 in 10.0 mi Variable 4.6 mph - N/A   Scattered Clouds
2:53 PM 81.0 °F 84.4 °F 70.0 °F 69% 29.65 in 7.0 mi ENE 4.6 mph - 0.00 in Rain Light Rain
3:34 PM 75.2 °F - 73.4 °F 94% 29.66 in 2.5 mi NW 3.5 mph - 0.02 in Rain , Thunderstorm Rain
3:53 PM 73.9 °F - 72.0 °F 93% 29.64 in 3.0 mi NNW 5.8 mph - 0.04 in Rain , Thunderstorm Light Rain
4:02 PM 73.4 °F - 71.6 °F 94% 29.65 in 1.8 mi NNW 3.5 mph - 0.03 in Rain , Thunderstorm Thunderstorms and Rain
4:22 PM 71.6 °F - 69.8 °F 94% 29.66 in 0.8 mi WNW 13.8 mph 18.4 mph 0.25 in Rain , Thunderstorm Heavy Thunderstorms and Rain
4:31 PM 71.6 °F - 69.8 °F 94% 29.68 in 0.2 mi Variable 6.9 mph 18.4 mph 0.56 in Fog , Rain , Thunderstorm Heavy Thunderstorms and Rain
4:42 PM 69.8 °F - 66.2 °F 88% 29.66 in 0.2 mi Variable 6.9 mph 31.1 mph 0.97 in Fog , Rain , Thunderstorm Heavy Thunderstorms and Rain
4:53 PM 70.0 °F - 66.9 °F 90% 29.65 in 1.0 mi NE 5.8 mph - 1.30 in Rain , Thunderstorm Heavy Rain
5:01 PM 69.8 °F - 66.2 °F 88% 29.65 in 1.8 mi Variable 3.5 mph - 0.18 in Rain , Thunderstorm Heavy Rain
5:10 PM 69.8 °F - 66.2 °F 88% 29.65 in 1.2 mi Calm Calm - 0.32 in Rain , Thunderstorm Heavy Thunderstorms and Rain
5:29 PM 69.8 °F - 66.2 °F 88% 29.64 in 2.5 mi Calm Calm - 0.44 in Rain Rain
5:38 PM 69.8 °F - 68.0 °F 94% 29.63 in 2.0 mi East 5.8 mph - 0.47 in Rain , Thunderstorm Rain
5:49 PM 71.6 °F - 68.0 °F 88% 29.62 in 4.0 mi Calm Calm - 0.48 in Rain , Thunderstorm Light Rain
5:53 PM 71.1 °F - 69.1 °F 93% 29.61 in 5.0 mi Calm Calm - 0.48 in Rain , Thunderstorm Light Rain
6:02 PM 71.6 °F - 69.8 °F 94% 29.61 in 7.0 mi ENE 6.9 mph - 0.00 in   Mostly Cloudy
6:43 PM 73.4 °F - 69.8 °F 88% 29.61 in 7.0 mi Calm Calm - 0.00 in   Scattered Clouds
6:53 PM 73.0 °F - 69.1 °F 87% 29.60 in 9.0 mi Calm Calm - 0.00 in   Mostly Cloudy
7:07 PM 71.6 °F - 69.8 °F 94% 29.60 in 9.0 mi East 3.5 mph - N/A   Overcast
7:22 PM 71.6 °F - 69.8 °F 94% 29.60 in 8.0 mi ENE 3.5 mph - 0.00 in Rain Light Rain
7:53 PM 72.0 °F - 68.0 °F 87% 29.60 in 10.0 mi Calm Calm - 0.00 in   Overcast
8:48 PM 71.6 °F - 69.8 °F 94% 29.59 in 2.5 mi South 3.5 mph - 0.01 in Rain Light Rain
8:53 PM 71.1 °F - 69.1 °F 93% 29.58 in 2.5 mi South 3.5 mph - 0.01 in Rain Light Rain
9:03 PM 71.6 °F - 69.8 °F 94% 29.59 in 4.0 mi Calm Calm - 0.01 in Rain Light Rain
9:29 PM 71.6 °F - 69.8 °F 94% 29.58 in 10.0 mi Calm Calm - 0.01 in   Overcast
9:53 PM 71.1 °F - 69.1 °F 93% 29.58 in 8.0 mi SSE 5.8 mph - 0.01 in Rain Light Rain
10:01 PM 71.6 °F - 69.8 °F 94% 29.58 in 10.0 mi South 4.6 mph - 0.00 in   Overcast
10:17 PM 71.6 °F - 69.8 °F 94% 29.57 in 6.0 mi Calm Calm - 0.00 in Rain Light Rain
10:27 PM 71.6 °F - 68.0 °F 88% 29.57 in 10.0 mi SSW 9.2 mph - 0.00 in Rain Light Rain
10:46 PM 71.6 °F - 69.8 °F 94% 29.57 in 10.0 mi Variable 5.8 mph - 0.00 in Rain Light Rain
10:53 PM 71.1 °F - 68.0 °F 90% 29.56 in 10.0 mi Variable 5.8 mph - 0.00 in Rain Light Rain
11:11 PM 71.6 °F - 68.0 °F 88% 29.58 in 10.0 mi Calm Calm - 0.00 in   Overcast
11:48 PM 71.6 °F - 68.0 °F 88% 29.57 in 9.0 mi Variable 4.6 mph - 0.00 in   Overcast
11:53 PM 71.1 °F - 68.0 °F 90% 29.57 in 9.0 mi Variable 5.8 mph - 0.00 in   Overcast